Location: Newark
(50.0306°N, 2.3272°E)
Time: 04:33:20
(UTC+00:00)

Transit 2A Rocket - Pass Details

Date: 12 December 2019
Orbit: 593 x 910 km, 66.7° (Epoch: 24 January)

Event Time Altitude Azimuth Distance (km) Brightness Sun altitude
Rises 16:31:13 0° 224° (SW) 2,935 9.8 -6.6°
Reaches altitude 10° 16:33:34 10° 228° (SW) 1,995 8.7 -6.9°
Maximum altitude 16:37:59 63° 310° (NW) 678 4.9 -7.6°
Drops below altitude 10° 16:42:16 10° 32° (NNE) 1,937 6.6 -8.2°
Enters shadow 16:42:53 - 33° (NNE) 2,186 6.8 -8.3°
Sets 16:44:31 0° 36° (NE) 2,842 - -8.5°
